This demonstration page uses our WeatherBlox Daily Observations layout. Learn more.

Left ArrowRight Arrow

53.62937, 11.41316

Hourly Observations for April 26, 2015

Temp ( °F °C ) Dew Point ( °F °C ) Humidity (%) Winds ( mph kmh ) Pressure ( in mb ) Visibility ( mi km ) Precip ( " mm )
6:20 am 06:20 Partly Cloudy with Mist and Fog 48 9 48 9 100 100 WSW 7 11 29.74 1007 1 2 N/A
6:50 am 06:50 Mostly Cloudy with Mist and Fog 48 9 48 9 100 100 WSW 6 9 29.74 1007 1 2 N/A
7:20 am 07:20 Cloudy with Mist and Fog 50 10 48 9 94 94 WSW 6 9 29.74 1007 1 2 N/A
7:50 am 07:50 Cloudy with Mist and Fog 50 10 50 10 100 100 WSW 7 11 29.74 1007 2 3 N/A
8:20 am 08:20 Partly Cloudy with Mist and Fog 52 11 50 10 94 94 S 5 7 29.74 1007 2 4 N/A
8:50 am 08:50 Partly Cloudy with Mist and Fog 52 11 50 10 94 94 SSW 5 7 29.74 1007 2 4 N/A
9:20 am 09:20 Mostly Cloudy with Mist and Fog 52 11 50 10 94 94 S 7 11 29.74 1007 2 4 N/A
9:50 am 09:50 Mostly Cloudy with Mist and Fog 52 11 50 10 94 94 S 8 13 29.74 1007 3 5 N/A
10:20 am 10:20 Mostly Cloudy with Mist and Fog 52 11 50 10 94 94 S 6 9 29.74 1007 2 4 N/A
10:50 am 10:50 Mostly Cloudy with Mist and Fog 54 12 52 11 94 94 SSW 6 9 29.74 1007 2 4 N/A
11:20 am 11:20 Mostly Cloudy with Light Rain 54 12 52 11 94 94 S 6 9 29.74 1007 2 4 N/A
11:50 am 11:50 Mostly Cloudy with Light Rain 54 12 50 10 88 88 SSW 7 11 29.74 1007 3 5 N/A
12:20 pm 12:20 Mostly Cloudy 54 12 50 10 88 88 S 6 9 29.71 1006 5 8 N/A
12:50 pm 12:50 Mostly Cloudy 55 13 50 10 82 82 SE 5 7 29.71 1006 5 8 N/A
1:20 pm 13:20 Cloudy 57 14 52 11 82 82 SE 6 9 29.71 1006 30 48 N/A
1:50 pm 13:50 Cloudy 59 15 52 11 77 77 S 10 17 29.71 1006 30 48 N/A
2:20 pm 14:20 Mostly Cloudy 59 15 52 11 77 77 SSW 8 13 29.71 1006 30 48 N/A
2:50 pm 14:50 Mostly Cloudy 57 14 54 12 88 88 SW 7 11 29.68 1005 30 48 N/A
3:20 pm 15:20 Mostly Cloudy with Light Rain 59 15 54 12 82 82 SSW 5 7 29.68 1005 30 48 N/A
3:50 pm 15:50 Mostly Cloudy 61 16 54 12 77 77 SW 9 15 29.68 1005 30 48 N/A
4:20 pm 16:20 Mostly Cloudy 63 17 54 12 73 73 SW 13 20 29.68 1005 30 48 N/A
4:50 pm 16:50 Mostly Cloudy 63 17 52 11 68 68 SW 9 15 29.65 1004 30 48 N/A
5:20 pm 17:20 Partly Cloudy 61 16 50 10 68 68 SW 12 19 29.65 1004 30 48 N/A
5:50 pm 17:50 Partly Cloudy 61 16 50 10 68 68 SW 12 19 29.65 1004 30 48 N/A
6:20 pm 18:20 Mostly Sunny 61 16 50 10 68 68 WSW 9 15 29.65 1004 30 48 N/A
6:33 pm 18:33 Mostly Cloudy with Nearby Thunderstorms 57 14 48 9 72 72 WSW 20 31 29.65 1004 30 48 N/A
6:50 pm 18:50 Cloudy with Light Rain and Nearby Thunderstorms 55 13 50 10 82 82 NW 17 28 29.68 1005 30 48 N/A

Powered by AerisWeather